Location: Bowman Observatory
(41.0326°N, 73.6210°W)
Time: 21:24:47
(UTC-04:00)

Cosmos 2298 Rocket - Visible Passes

Search period start: 01 April 2015 00:00
Search period end: 11 April 2015 00:00
Orbit: 777 x 784 km, 74.0° (Epoch: 31 March)

Date Brightness Start Highest point End Pass type
(mag) Time Alt. Az. Time Alt. Az. Time Alt. Az.
01 Apr 5.8 19:55:44 10° NNE 19:58:47 16° NE 20:02:00 10° E visible
01 Apr 4.1 21:36:30 10° NNW 21:41:50 75° WSW 21:42:34 63° SSW visible
02 Apr 4.0 21:03:09 10° NNW 21:08:29 71° ENE 21:10:23 40° SE visible
02 Apr 6.5 22:47:32 10° WNW 22:50:16 14° W 22:50:57 13° WSW visible
03 Apr 4.4 20:29:57 10° N 20:35:03 45° ENE 20:38:16 21° SE visible
03 Apr 6.0 22:13:01 10° NW 22:17:07 22° W 22:18:50 19° SW visible
04 Apr 5.0 19:56:56 10° N 20:01:31 30° ENE 20:06:12 10° ESE visible
04 Apr 5.4 21:39:07 10° NW 21:43:56 35° WSW 21:46:49 20° SSW visible
05 Apr 4.6 21:05:29 10° NNW 21:10:41 56° WSW 21:14:52 16° S visible
06 Apr 4.0 20:32:02 10° NNW 20:37:23 88° WSW 20:42:44 10° SSE visible
07 Apr 4.2 19:58:45 10° NNW 20:04:01 59° ENE 20:09:16 10° SSE visible
07 Apr 6.6 21:42:30 10° WNW 21:45:54 17° W 21:49:03 10° SW visible
08 Apr 6.0 21:08:18 10° NW 21:12:44 26° W 21:17:04 10° SSW visible
09 Apr 5.3 20:34:31 10° NNW 20:39:32 42° WSW 20:44:29 10° S visible
10 Apr 4.5 20:00:58 10° NNW 20:06:16 67° WSW 20:11:32 10° S visible
